[[{"header":{"parameterUnit":"m.s-1","parameterCategory":1,"la1":30.2991,"la2":30.254,"lo1":-89.0895,"lo2":-89.0444,"dy":0.0017,"dx":0.0017,"nx":28,"ny":28,"refTime":"2023-11-04T21:00:00:Z","depth":0,"parameterNumber":2,"parameterNumberName":"U-component_of_WINDS"},"data":[0,0,0,0,0,0,0,0,0,0,0,0,0,0,0,0,0,0,0,0,0,0,0,0,0,0,0,0,0,0,0,0,0,0,0,0,0,0,0,0,0,0,0,0,0,0,0,0,0,0,0,0,0,0,0,0,0,0,0.1219,0.1218,0,0.1163,0.1162,0.1162,0.1145,0.1145,0.1145,0.1145,0.1086,0.1084,0.1083,0,0,0,0,0,0,0,0,0,0,0,0,0,0.131,0.1308,0.1219,0.1218,0.1218,0.1163,0.1162,0.1162,0.1145,0.1145,0.1145,0.1146,0.1087,0.1085,0.1082,0,0,0,0,0,0,0,0,0,0,0,0,0,0.1264,0.1308,0.1219,0.1203,0.1201,0.1163,0.1162,0.1161,0.1145,0.1145,0.1145,0.1146,0.1087,0.1085,0.1082,0.1057,0,0,0.1074,0.1072,0,0,0,0,0,0,0,0,0.1267,0.1261,0.1206,0.1204,0.1201,0.1161,0.1173,0.1126,0.1144,0.1166,0.1145,0.1146,0.1111,0.1106,0.1095,0.1054,0.1051,0.1073,0.1072,0.1071,0.107,0,0,0,0,0,0,0,0.127,0.1263,0.1197,0.1205,0.1202,0.1198,0.1192,0.1164,0.1136,0.1164,0.1163,0.1156,0.111,0.1097,0.1093,0.105,0.1073,0.1071,0.1069,0.1068,0.0986,0.0986,0,0,0,0,0,0,0.1276,0.1266,0.1199,0.1195,0.1236,0.1196,0.1189,0.1174,0.1137,0.1132,0.1156,0.1156,0.1102,0.1096,0.1091,0.1059,0.1071,0.1068,0.1066,0.0987,0.0986,0.0985,0,0,0,0,0,0,0.1278,0.127,0.1201,0.123,0.1221,0.1194,0.1177,0.1172,0.116,0.1131,0.1126,0.1149,0.1102,0.1095,0.1065,0.1056,0.1067,0.1064,0.0987,0.0986,0.0986,0.0994,0,0,0,0,0,0,0.1281,0.1271,0.1261,0.123,0.1219,0.1177,0.1176,0.1171,0.1156,0.1155,0.1122,0.1117,0.1102,0.107,0.1063,0.1053,0.1062,0.0988,0.0987,0.0986,0.0994,0.0994,0.0993,0,0,0,0,0,0.1284,0.1265,0.1261,0.1253,0.1207,0.1176,0.117,0.1153,0.1155,0.1145,0.1126,0.1118,0.1059,0.1067,0.1059,0.1048,0.0988,0.0987,0.0986,0.0995,0.0994,0.0993,0,0,0,0,0,0,0.1295,0.1261,0.1255,0.1226,0.1204,0.1173,0.116,0.1152,0.1129,0.1129,0.1108,0.1101,0.1073,0.1058,0.1067,0.1021,0.1023,0.102,0.1033,0.1031,0.1031,0.1035,0.106,0,0,0,0,0,0.1295,0.1273,0.1244,0.1221,0.121,0.1187,0.1173,0.1162,0.1138,0.1129,0.1108,0.1085,0.1061,0.1045,0.1022,0.0992,0.0985,0.0981,0.098,0.098,0.0977,0.0961,0.0959,0.0982,0.0982,0.0982,0,0,0.1292,0.1271,0.1259,0.1223,0.1205,0.1183,0.1179,0.1156,0.114,0.1125,0.1096,0.108,0.1053,0.1024,0.101,0.101,0.097,0.0978,0.0978,0.0976,0.0959,0.0957,0.0955,0.0981,0.0981,0.0981,0,0,0.1277,0.1259,0.1238,0.122,0.1193,0.1178,0.1173,0.1143,0.1132,0.1103,0.1092,0.1072,0.1031,0.1012,0.0997,0.0976,0.0968,0.0969,0.0965,0.0949,0.0947,0.0945,0.0938,0.0935,0.0967,0.0967,0.0967,0,0.1278,0.1245,0.1228,0.1205,0.119,0.1177,0.1155,0.1139,0.1105,0.1094,0.1095,0.1044,0.1025,0.0991,0.0986,0.0974,0.0968,0.0972,0.0949,0.0947,0.0945,0.0937,0.0935,0.0967,0.0967,0.0967,0.0967,0,0.1247,0.1224,0.121,0.1179,0.1162,0.114,0.112,0.1104,0.1095,0.108,0.105,0.1027,0.0999,0.099,0.098,0.0955,0.0956,0.0953,0.0954,0.0943,0.0936,0.0933,0.0967,0.0967,0.0967,0.0967,0,0,0.1236,0.1197,0.1192,0.1178,0.1147,0.1129,0.1107,0.108,0.1067,0.1044,0.1025,0.0991,0.0988,0.0972,0.096,0.0946,0.0931,0.0945,0.0944,0.0943,0.0901,0.0903,0.09,0.0926,0.0925,0.0924,0.0903,0,0.1217,0.1177,0.1161,0.1129,0.1107,0.1095,0.1076,0.1055,0.104,0.102,0.1003,0.098,0.0978,0.0968,0.0954,0.0936,0.0922,0.0937,0.0907,0.0906,0.0913,0.0896,0.0898,0.0879,0.09,0.09,0.09,0,0.1189,0.1167,0.1132,0.1105,0.1095,0.1078,0.1052,0.1033,0.1009,0.1,0.0981,0.097,0.0946,0.095,0.0916,0.0926,0.0913,0.0902,0.0901,0.0897,0.0902,0.0891,0.0873,0.087,0.0895,0.0895,0.0896,0,0.1184,0.1146,0.112,0.1109,0.1076,0.1064,0.105,0.1027,0.1012,0.0989,0.0979,0.0954,0.094,0.092,0.0903,0.0907,0.087,0.0872,0.0861,0.0862,0.0854,0.0854,0.0832,0.0846,0.0846,0.0846,0.0846,0,0.1164,0.1143,0.1118,0.1102,0.1079,0.1061,0.1038,0.1023,0.1003,0.0983,0.0971,0.0953,0.0932,0.0911,0.0897,0.0871,0.0865,0.0856,0.0852,0.0857,0.0858,0.0847,0.0848,0.0845,0.0845,0.0846,0.0846,0,0.1155,0.1137,0.1109,0.1081,0.1073,0.1057,0.1033,0.1017,0.1002,0.0978,0.0971,0.0948,0.0923,0.0904,0.0871,0.0862,0.0834,0.0831,0.0843,0.0841,0.0831,0.0832,0.0801,0.0796,0.0813,0.0813,0.0813,0,0.1143,0.1127,0.1098,0.1084,0.107,0.1049,0.1034,0.1016,0.1001,0.0973,0.096,0.0935,0.0913,0.0874,0.0854,0.0829,0.0824,0.0815,0.082,0.0825,0.0824,0.0825,0.0823,0.0814,0.0814,0.0814,0.0814,0,0.1124,0.1116,0.1095,0.1071,0.1054,0.1034,0.1013,0.1003,0.0982,0.0965,0.094,0.0924,0.0891,0.0865,0.0838,0.0823,0.0815,0.0813,0.0809,0.0813,0.082,0.0816,0.084,0.0813,0.0813,0.0813,0.0813,0.0813,0.1112,0.1098,0.1075,0.1052,0.1035,0.1017,0.1001,0.0985,0.0963,0.0936,0.0927,0.0901,0.0878,0.0841,0.0826,0.0805,0.0804,0.0799,0.0797,0.0796,0.0796,0.0824,0.08,0.08,0.08,0.08,0.08,0,0.1092,0.1078,0.1057,0.1029,0.1011,0.1006,0.0984,0.0969,0.0946,0.0926,0.0905,0.0876,0.0852,0.083,0.0805,0.0792,0.0788,0.0786,0.0787,0.0783,0.0798,0.0804,0.079,0.079,0.079,0.079,0.079,0.079,0.108,0.1055,0.1044,0.1011,0.0996,0.0971,0.0959,0.0942,0.0925,0.0894,0.0874,0.086,0.0839,0.0812,0.0789,0.0783,0.0774,0.0774,0.0767,0.0781,0.0782,0.0783,0.0789,0.0772,0.0772,0.0754,0.0754,0.0753]},{"header":{"parameterUnit":"m.s-1","parameterCategory":1,"la1":30.2991,"la2":30.254,"lo1":-89.0895,"lo2":-89.0444,"dy":0.0017,"dx":0.0017,"nx":28,"ny":28,"refTime":"2023-11-04T21:00:00:Z","depth":0,"parameterNumber":3,"parameterNumberName":"V-component_of_WINDS"},"data":[0,0,0,0,0,0,0,0,0,0,0,0,0,0,0,0,0,0,0,0,0,0,0,0,0,0,0,0,0,0,0,0,0,0,0,0,0,0,0,0,0,0,0,0,0,0,0,0,0,0,0,0,0,0,0,0,0,0,-2.1368,-2.1368,0,-2.1379,-2.1379,-2.1379,-2.1331,-2.133,-2.1328,-2.1327,-2.1336,-2.1338,-2.1339,0,0,0,0,0,0,0,0,0,0,0,0,0,-2.1302,-2.1304,-2.1368,-2.1368,-2.1368,-2.1379,-2.1379,-2.1379,-2.1331,-2.133,-2.1328,-2.1326,-2.1336,-2.1337,-2.1339,0,0,0,0,0,0,0,0,0,0,0,0,0,-2.1324,-2.1304,-2.1368,-2.1346,-2.1344,-2.1379,-2.1379,-2.1379,-2.1332,-2.133,-2.1328,-2.1326,-2.1335,-2.1337,-2.134,-2.1396,0,0,-2.1347,-2.1348,0,0,0,0,0,0,0,0,-2.1322,-2.1326,-2.1349,-2.1347,-2.1345,-2.1352,-2.1359,-2.1385,-2.1332,-2.1336,-2.1327,-2.1325,-2.1343,-2.1344,-2.1351,-2.1396,-2.1397,-2.1347,-2.1348,-2.1349,-2.135,0,0,0,0,0,0,0,-2.1321,-2.1325,-2.1372,-2.1349,-2.1347,-2.1334,-2.1335,-2.1364,-2.1351,-2.1336,-2.1332,-2.1334,-2.1341,-2.1349,-2.1351,-2.1397,-2.1347,-2.1349,-2.135,-2.1351,-2.1489,-2.1491,0,0,0,0,0,0,-2.1323,-2.1324,-2.1372,-2.1372,-2.1328,-2.1337,-2.1338,-2.1352,-2.1351,-2.1349,-2.1336,-2.1332,-2.1346,-2.1348,-2.1351,-2.1418,-2.1349,-2.1351,-2.1353,-2.1487,-2.149,-2.1492,0,0,0,0,0,0,-2.1322,-2.1328,-2.1371,-2.1347,-2.1352,-2.134,-2.1356,-2.1353,-2.136,-2.1351,-2.1348,-2.1346,-2.1344,-2.1348,-2.1385,-2.1417,-2.1352,-2.1354,-2.1484,-2.1488,-2.1491,-2.1551,0,0,0,0,0,0,-2.132,-2.1327,-2.1349,-2.1348,-2.1354,-2.1406,-2.1358,-2.1355,-2.1365,-2.136,-2.136,-2.1358,-2.1343,-2.1382,-2.1388,-2.1419,-2.1356,-2.1481,-2.1486,-2.149,-2.1546,-2.1556,-2.1565,0,0,0,0,0,-2.1318,-2.1365,-2.1351,-2.1357,-2.1381,-2.1408,-2.1411,-2.1394,-2.1368,-2.1389,-2.1383,-2.1358,-2.1413,-2.1386,-2.1392,-2.1425,-2.1479,-2.1485,-2.149,-2.1542,-2.1554,-2.1565,0,0,0,0,0,0,-2.1369,-2.1365,-2.1349,-2.1397,-2.1404,-2.14,-2.1427,-2.1407,-2.142,-2.1415,-2.1392,-2.1392,-2.1434,-2.1433,-2.1404,-2.148,-2.1441,-2.1448,-2.1479,-2.1491,-2.15,-2.15,-2.1358,0,0,0,0,0,-2.1386,-2.141,-2.1404,-2.1447,-2.1452,-2.1439,-2.145,-2.1436,-2.1442,-2.1444,-2.1441,-2.1446,-2.1465,-2.1477,-2.1494,-2.1545,-2.1545,-2.1571,-2.158,-2.1588,-2.1594,-2.1622,-2.1634,-2.1509,-2.1509,-2.1509,0,0,-2.1421,-2.1422,-2.1438,-2.1458,-2.1461,-2.1486,-2.1442,-2.1469,-2.1487,-2.1448,-2.1484,-2.1482,-2.1486,-2.1532,-2.1551,-2.1532,-2.1628,-2.1594,-2.16,-2.1603,-2.1629,-2.1641,-2.1651,-2.1513,-2.1512,-2.1511,0,0,-2.1499,-2.1501,-2.1538,-2.1543,-2.1549,-2.154,-2.1549,-2.1549,-2.1546,-2.1582,-2.1554,-2.1574,-2.1606,-2.1611,-2.1617,-2.1697,-2.1674,-2.1702,-2.1751,-2.1779,-2.1789,-2.1797,-2.1827,-2.1838,-2.1708,-2.1708,-2.1709,0,-2.1542,-2.1579,-2.156,-2.159,-2.1599,-2.1566,-2.1603,-2.1608,-2.1619,-2.1626,-2.1604,-2.1644,-2.1644,-2.1691,-2.1711,-2.1716,-2.1726,-2.1703,-2.1789,-2.1798,-2.1805,-2.1833,-2.1844,-2.1712,-2.1712,-2.1711,-2.1711,0,-2.1632,-2.1658,-2.1687,-2.17,-2.1712,-2.1745,-2.1731,-2.1745,-2.173,-2.1724,-2.1761,-2.176,-2.1776,-2.1786,-2.1771,-2.1831,-2.1819,-2.1793,-2.1754,-2.1821,-2.1847,-2.1858,-2.1717,-2.1716,-2.1715,-2.1714,0,0,-2.1743,-2.1745,-2.1756,-2.1762,-2.1766,-2.1785,-2.1817,-2.1834,-2.1847,-2.1855,-2.1882,-2.191,-2.1886,-2.1894,-2.1879,-2.1903,-2.1968,-2.1875,-2.1874,-2.1893,-2.2035,-2.2055,-2.2068,-2.1952,-2.1954,-2.1955,-2.2035,0,-2.182,-2.1876,-2.186,-2.1915,-2.1939,-2.1907,-2.1935,-2.194,-2.1934,-2.1953,-2.1946,-2.1967,-2.1934,-2.1939,-2.1961,-2.1955,-2.1996,-2.1949,-2.1977,-2.1978,-2.1979,-2.2081,-2.2103,-2.2178,-2.2045,-2.2046,-2.2048,0,-2.1918,-2.1932,-2.1991,-2.1992,-2.2001,-2.2026,-2.2041,-2.2059,-2.2064,-2.2058,-2.2067,-2.2047,-2.2077,-2.2037,-2.2079,-2.2048,-2.2057,-2.2056,-2.2059,-2.2062,-2.2018,-2.2089,-2.2201,-2.2214,-2.2063,-2.2062,-2.2061,0,-2.1996,-2.2028,-2.2068,-2.2073,-2.2075,-2.2094,-2.2095,-2.2098,-2.2109,-2.2121,-2.2129,-2.2143,-2.2152,-2.2164,-2.2148,-2.212,-2.2193,-2.2151,-2.2189,-2.219,-2.2208,-2.2207,-2.2325,-2.2211,-2.2211,-2.2211,-2.221,0,-2.2085,-2.2122,-2.2103,-2.2127,-2.2168,-2.2148,-2.2189,-2.2186,-2.2189,-2.2212,-2.2184,-2.2207,-2.2184,-2.2204,-2.2191,-2.2229,-2.2232,-2.2228,-2.2225,-2.2232,-2.2233,-2.224,-2.2235,-2.2214,-2.2213,-2.2212,-2.2212,0,-2.2179,-2.2167,-2.2209,-2.2207,-2.2207,-2.2238,-2.2236,-2.2258,-2.225,-2.228,-2.2286,-2.2273,-2.2295,-2.2281,-2.2302,-2.2294,-2.2343,-2.2331,-2.2342,-2.234,-2.238,-2.2377,-2.2508,-2.2525,-2.2398,-2.2399,-2.24,0,-2.2237,-2.2266,-2.2268,-2.2282,-2.2285,-2.2308,-2.232,-2.2301,-2.2314,-2.2322,-2.2344,-2.2363,-2.2378,-2.2414,-2.2407,-2.2424,-2.2413,-2.2458,-2.2415,-2.2422,-2.2416,-2.2416,-2.2419,-2.2467,-2.2469,-2.247,-2.2471,0,-2.2343,-2.2336,-2.2355,-2.2372,-2.2388,-2.24,-2.2409,-2.2422,-2.2403,-2.2419,-2.2442,-2.2454,-2.2476,-2.2496,-2.251,-2.251,-2.2488,-2.2484,-2.2494,-2.2503,-2.2509,-2.2508,-2.2368,-2.2481,-2.248,-2.248,-2.2479,-2.2479,-2.2422,-2.2447,-2.2452,-2.2474,-2.248,-2.249,-2.2511,-2.2506,-2.2525,-2.2543,-2.253,-2.2557,-2.2561,-2.2578,-2.2581,-2.2602,-2.2583,-2.2597,-2.2601,-2.2606,-2.2612,-2.2504,-2.2604,-2.2603,-2.2603,-2.2603,-2.2602,0,-2.2529,-2.2531,-2.2551,-2.2566,-2.2584,-2.2561,-2.2571,-2.2587,-2.2612,-2.2617,-2.2633,-2.266,-2.2679,-2.2673,-2.269,-2.2708,-2.2698,-2.2713,-2.2713,-2.2714,-2.2627,-2.2617,-2.2721,-2.2721,-2.2721,-2.2721,-2.2721,-2.2721,-2.2586,-2.2626,-2.262,-2.2663,-2.2664,-2.2692,-2.2699,-2.2708,-2.2713,-2.2744,-2.2761,-2.2757,-2.2758,-2.2776,-2.2792,-2.279,-2.2798,-2.2818,-2.2812,-2.2731,-2.272,-2.2709,-2.27,-2.2819,-2.282,-2.2898,-2.2898,-2.2899]}]]